{"data":{"norad_id":66306,"intl_designator":"2025-248P","name":"BANDWAGON-4 OBJECT P","alt_names":[],"object_type":"PAYLOAD","status":"ACTIVE","operator":null,"country":"TBD","launch_date":"2025-11-02","launch_site_code":"AFETR","launch_vehicle":null,"mission":null,"orbit_class":"UNKNOWN","rcs_meters":null,"size_class":null,"mass_kg":null,"dimensions":null,"purposes":[],"wikipedia_slug":null,"has_3d_model":false,"image_url":null,"decayed_at":null,"tle_current":{"epoch":"2026-05-24T08:08:55.454208Z","epoch_age_seconds":125480,"freshness":"FRESH","line1":"1 66306U 25248P   26144.33953072  .00012588  00000+0  48185-3 0  9993","line2":"2 66306  45.4025 242.9061 0014288 287.5719  72.3609 15.26562025 30957","mean_motion":15.26562025,"eccentricity":0.0014288,"inclination_deg":45.4025,"raan_deg":242.9061,"arg_perigee_deg":287.5719,"mean_anomaly_deg":72.3609,"bstar":0.00048185,"rev_number":3095,"period_min":94.329609699285,"perigee_km":476.29135279977,"apogee_km":495.90659351667,"semimajor_km":6864.2359731582,"source":"CELESTRAK","updated_at":"2026-05-25T13:38:06.131928Z"}}}